CSS (TIANHE-1)
1 48274U 21035A   25283.78035515  .00030259  00000-0  34642-3 0  9991
2 48274  41.4663  39.3610 0003032 224.3393 135.7203 15.61460494254199
TUBIN
1 48900U 21059X   25283.81855225  .00127519  00000-0  81316-3 0  9991
2 48900  97.6750 104.2794 0002024 143.0704 217.0700 15.76020761239333
LEDSAT
1 49069U 21073D   25283.69738919  .01306327  11393-2  13753-2 0  9995
2 49069  97.3609  12.6643 0008266 283.2998  76.7364 16.10582176230790
CUTE
1 49263U 21088D   25283.81396728  .00038814  00000-0  61390-3 0  9993
2 49263  97.4391   4.0877 0006949 133.5389 226.6442 15.53337469223510
TeikyoSat 4
1 49396U 21102B   25283.51643500  .00003132  00000-0  20589-3 0  9997
2 49396  97.3986 317.4750 0013897  74.2638 286.0122 15.08213133215073
Z-Sat
1 49399U 21102E   25283.80812142  .00005000  00000-0  26587-3 0  9992
2 49399  97.3672 321.6480 0018637  41.1124 319.1509 15.15562884215632
KOSEN 1
1 49402U 21102H   25283.55810841  .00007949  00000-0  34842-3 0  9990
2 49402  97.3572 325.7941 0015386  14.9904 345.1785 15.22151224215988
HO-113
1 50466U 21131B   25283.88167948  .00000807  00000-0  26502-3 0  9993
2 50466  98.5074  12.6205 0005177 121.0849 239.0848 14.40981583199205
SNUGLITE 2
1 52899U 22065F   25283.84210303  .00001672  00000-0  33124-3 0  9991
2 52899  98.1870  64.7645 0008687  87.7945 272.4251 14.63566923174515
UmKA 1 (RS40S)
1 57172U 23091G   25283.83744175  .00008008  00000-0  40859-3 0  9991
2 57172  97.5432 338.5976 0012375 266.9192  93.0625 15.16932906126150
CubeBel-2 (EU11S)
1 57175U 23091K   25283.84087949  .00011707  00000-0  51641-3 0  9995
2 57175  97.5430 340.5723 0009986 271.5655  88.4437 15.21894584126282
ENSO
1 58470U 23185J   25281.93581024  .00297561  00000-0  15281-2 0  9992
2 58470  97.3562   2.3759 0004010 303.5658  56.5227 15.80429301104004
SONATE-2
1 59112U 24043Q   25283.35078679  .00026678  00000-0  65261-3 0  9998
2 59112  97.5294  57.4769 0010162  37.6753 322.5202 15.40717629 89202
MO-122
1 60209U 24125G   25283.84659837  .00026284  00000-0  62669-3 0  9995
2 60209  97.2621 134.3762 0018093  56.3607 303.9363 15.41374448 70904
GRBBeta
1 60237U 24128C   25283.53713537  .00005020  00000-0  36509-3 0  9992
2 60237  61.9927  10.5033 0056944  83.3162 277.4406 15.03882343 68682
Curium One
1 60242U 24128H   25283.47380797  .00009501  00000-0  61700-3 0  9998
2 60242  61.9823   6.9714 0056738  79.7607 280.9878 15.07295229 68746
ROBUSTA-3A
1 60243U 24128J   25283.51816014  .00009327  00000-0  61608-3 0  9993
2 60243  61.9898   8.0875 0056301  77.3450 283.3930 15.06710182 68730
CatSat
1 60246U 24125J   25283.15870693  .00028912  00000-0  82943-3 0  9992
2 60246  97.2435 131.4502 0038722  19.2358 341.0337 15.35066114 68755
HYPERVIEW-1G (RS66S)
1 61772U 24199AP  25283.83848323  .00034895  00000-0  82291-3 0  9991
2 61772  97.3302 152.7552 0014000 105.7814 254.4978 15.41719454 95900
AO-123
1 61781U 24199AY  25283.86544046  .00009391  00000-0  32191-3 0  9996
2 61781  97.3330 150.0565 0016847 116.6293 243.6676 15.30264468 95722
ZIMSAT 2
1 61783U 24199BA  25283.87576310  .00080120  00000-0  12534-2 0  9995
2 61783  97.3237 154.7498 0012882  98.1215 262.1500 15.53396303 99195
HADES-R (SO-124)
1 62690U 25009CK  25283.20149335  .00083184  00000-0  19748-2 0  9991
2 62690  97.3981   4.2918 0001276 352.2925   7.8302 15.41388668 40947
HYDRA-T
1 62692U 25009CM  25283.28640149  .00085400  00000-0  19859-2 0  9996
2 62692  97.3982   4.4830 0001442 330.9368  29.1798 15.42003494 40964
JINJUSat 1B
1 63210U 25052A   25283.21432867  .00016555  00000-0  68774-3 0  9996
2 63210  97.4227 175.8924 0001598 231.0619 129.0475 15.23888918 31900
NUSHSAT 1
1 63211U 25052B   25283.44116045  .00019692  00000-0  80185-3 0  9994
2 63211  97.4213 176.1715 0001411 240.7789 119.3308 15.24527079 31947
TEVEL2-4
1 63213U 25052D   25283.41844411  .00018355  00000-0  75842-3 0  9997
2 63213  97.4128 175.8235 0000739 308.1096  52.0075 15.24048699 31938
TEVEL2-5
1 63214U 25052E   25283.22447861  .00017578  00000-0  72768-3 0  9995
2 63214  97.4128 175.6251 0000732 310.7408  49.3766 15.23994995 31905
TEVEL2-6
1 63215U 25052F   25283.68948590  .00016855  00000-0  69849-3 0  9994
2 63215  97.4132 176.0763 0000785 309.9198  50.1970 15.23968593 31977
TEVEL2-1
1 63217U 25052H   25283.26017896  .00018115  00000-0  75680-3 0  9997
2 63217  97.4103 175.5134 0001464 336.3299  23.7870 15.23679850 31907
TEVEL2-3
1 63218U 25052J   25283.65410074  .00017362  00000-0  72500-3 0  9997
2 63218  97.4109 175.9050 0001572 333.7740  26.3418 15.23704498 31967
TEVEL2-2
1 63219U 25052K   25283.19526532  .00018087  00000-0  75573-3 0  9992
2 63219  97.4109 175.4487 0001544 338.5277  21.5895 15.23674974 31897
TEVEL2-9
1 63237U 25052AD  25283.42784303  .00015729  00000-0  68398-3 0  9997
2 63237  97.4172 175.4673 0005834 322.2180  37.8646 15.22336891 31901
TEVEL2-7
1 63238U 25052AE  25283.43644411  .00016819  00000-0  73329-3 0  9995
2 63238  97.4176 175.4610 0005957 321.5031  38.5780 15.22231646 31909
TEVEL2-8
1 63239U 25052AF  25283.44093588  .00016804  00000-0  73329-3 0  9994
2 63239  97.4177 175.4527 0005958 322.6741  37.4080 15.22201561 31903
HYDRA-W
1 63490U 25052BL  25283.19319667  .00055278  00000-0  17926-2 0  9992
2 63490  97.4108 176.5441 0006908 315.7426  44.3262 15.31765625 31963
HADES-ICM (SO-125)
1 63492U 25052BN  25283.19427287  .00050977  00000-0  17075-2 0  9998
2 63492  97.4131 176.4076 0007544 320.2291  39.8396 15.30738934 31950
